Time,TemperatureF,DewpointF,PressureIn,WindDirection,WindDirectionDegrees,WindSpeedMPH,WindSpeedGustMPH,Humidity,HourlyPrecipIn,Conditions,Clouds,dailyrainin,SoftwareType,DateUTC
2013-11-18 00:13:00,59.2,58.0,29.89,South,191,7.0,7.0,97,0.01,,,0.12,weatherlink.com 1.10,2013-11-18 05:13:00,
2013-11-18 00:28:00,59.3,59.0,29.88,SSW,200,4.0,9.0,97,0.01,,,0.12,weatherlink.com 1.10,2013-11-18 05:28:00,
2013-11-18 00:43:00,59.1,58.0,29.88,SW,226,4.0,8.0,97,0.00,,,0.12,weatherlink.com 1.10,2013-11-18 05:43:00,
2013-11-18 00:58:00,59.1,58.0,29.88,SSW,197,1.0,7.0,97,0.00,,,0.12,weatherlink.com 1.10,2013-11-18 05:58:00,
2013-11-18 01:13:00,59.3,59.0,29.86,SSW,193,3.0,8.0,97,0.01,,,0.13,weatherlink.com 1.10,2013-11-18 06:13:00,
2013-11-18 01:29:00,59.4,59.0,29.86,SSE,168,2.0,9.0,97,0.01,,,0.13,weatherlink.com 1.10,2013-11-18 06:29:00,
2013-11-18 01:44:00,59.7,59.0,29.86,SSW,200,5.0,7.0,97,0.01,,,0.13,weatherlink.com 1.10,2013-11-18 06:44:00,
2013-11-18 01:59:00,59.7,59.0,29.85,SW,231,3.0,8.0,97,0.01,,,0.13,weatherlink.com 1.10,2013-11-18 06:59:00,
2013-11-18 02:14:00,59.8,59.0,29.84,SSW,192,4.0,13.0,97,0.00,,,0.13,weatherlink.com 1.10,2013-11-18 07:14:00,
2013-11-18 02:29:00,59.8,59.0,29.82,SE,146,2.0,9.0,97,0.00,,,0.13,weatherlink.com 1.10,2013-11-18 07:29:00,
2013-11-18 02:44:00,59.6,59.0,29.82,South,184,4.0,8.0,97,0.00,,,0.13,weatherlink.com 1.10,2013-11-18 07:44:00,
2013-11-18 02:59:00,59.3,59.0,29.82,SE,137,6.0,9.0,97,0.00,,,0.13,weatherlink.com 1.10,2013-11-18 07:59:00,
2013-11-18 03:14:00,59.3,59.0,29.81,SSW,210,6.0,8.0,97,0.00,,,0.13,weatherlink.com 1.10,2013-11-18 08:14:00,
2013-11-18 03:29:00,59.3,59.0,29.80,SSW,212,3.0,9.0,97,0.00,,,0.13,weatherlink.com 1.10,2013-11-18 08:29:00,
2013-11-18 03:44:00,59.2,58.0,29.79,SSE,152,2.0,9.0,97,0.00,,,0.13,weatherlink.com 1.10,2013-11-18 08:44:00,
2013-11-18 03:59:00,59.6,59.0,29.78,SSW,194,1.0,9.0,97,0.00,,,0.00,weatherlink.com 1.10,2013-11-18 08:59:00,
2013-11-18 04:14:00,60.0,59.0,29.77,South,179,2.0,11.0,97,0.00,,,0.00,weatherlink.com 1.10,2013-11-18 09:14:00,
2013-11-18 04:29:00,60.2,59.0,29.77,SW,232,6.0,11.0,97,0.00,,,0.00,weatherlink.com 1.10,2013-11-18 09:29:00,
2013-11-18 04:44:00,60.5,60.0,29.75,South,190,3.0,10.0,97,0.01,,,0.01,weatherlink.com 1.10,2013-11-18 09:44:00,
2013-11-18 04:59:00,60.6,60.0,29.73,SSW,203,5.0,11.0,97,0.01,,,0.01,weatherlink.com 1.10,2013-11-18 09:59:00,
2013-11-18 05:14:00,60.7,60.0,29.72,SSE,160,2.0,12.0,98,0.02,,,0.02,weatherlink.com 1.10,2013-11-18 10:14:00,
2013-11-18 05:29:00,60.6,60.0,29.70,SSW,194,5.0,12.0,97,0.02,,,0.02,weatherlink.com 1.10,2013-11-18 10:29:00,
2013-11-18 05:44:00,60.8,60.0,29.69,SSE,153,4.0,16.0,97,0.01,,,0.02,weatherlink.com 1.10,2013-11-18 10:44:00,
2013-11-18 05:59:00,61.0,60.0,29.68,SSE,153,3.0,12.0,97,0.03,,,0.04,weatherlink.com 1.10,2013-11-18 10:59:00,
2013-11-18 06:14:00,61.1,60.0,29.68,South,176,3.0,20.0,97,0.09,,,0.11,weatherlink.com 1.10,2013-11-18 11:14:00,
2013-11-18 06:29:00,61.2,60.0,29.67,South,181,2.0,12.0,97,0.12,,,0.14,weatherlink.com 1.10,2013-11-18 11:29:00,
2013-11-18 06:44:00,61.6,61.0,29.67,SW,217,5.0,18.0,97,0.14,,,0.16,weatherlink.com 1.10,2013-11-18 11:44:00,
2013-11-18 06:59:00,61.4,61.0,29.67,SSE,148,4.0,15.0,97,0.13,,,0.17,weatherlink.com 1.10,2013-11-18 11:59:00,
2013-11-18 07:14:00,61.5,61.0,29.67,SW,214,4.0,12.0,97,0.07,,,0.18,weatherlink.com 1.10,2013-11-18 12:14:00,
2013-11-18 07:29:00,61.5,61.0,29.66,South,169,6.0,16.0,97,0.11,,,0.25,weatherlink.com 1.10,2013-11-18 12:29:00,
2013-11-18 07:44:00,61.4,61.0,29.66,WSW,240,0.0,15.0,97,0.16,,,0.32,weatherlink.com 1.10,2013-11-18 12:44:00,
2013-11-18 07:59:00,61.9,61.0,29.67,WSW,249,7.0,13.0,97,0.19,,,0.36,weatherlink.com 1.10,2013-11-18 12:59:00,
2013-11-18 08:15:00,61.8,61.0,29.68,WNW,299,2.0,17.0,97,0.22,,,0.40,weatherlink.com 1.10,2013-11-18 13:15:00,
2013-11-18 08:30:00,60.6,60.0,29.66,SSW,210,1.0,8.0,97,0.15,,,0.40,weatherlink.com 1.10,2013-11-18 13:30:00,
2013-11-18 08:45:00,60.5,59.0,29.66,SW,220,4.0,8.0,96,0.08,,,0.40,weatherlink.com 1.10,2013-11-18 13:45:00,
2013-11-18 08:59:00,60.7,60.0,29.66,SSW,212,3.0,7.0,96,0.04,,,0.40,weatherlink.com 1.10,2013-11-18 13:59:00,
2013-11-18 09:15:00,60.5,59.0,29.66,WSW,248,3.0,9.0,94,0.00,,,0.40,weatherlink.com 1.10,2013-11-18 14:15:00,
2013-11-18 09:30:00,60.2,58.0,29.66,South,176,4.0,13.0,92,0.00,,,0.40,weatherlink.com 1.10,2013-11-18 14:30:00,
2013-11-18 09:45:00,60.7,58.0,29.66,SSW,204,4.0,13.0,89,0.00,,,0.40,weatherlink.com 1.10,2013-11-18 14:45:00,
2013-11-18 10:02:00,60.5,55.0,29.66,West,266,3.0,16.0,82,0.00,,,0.40,weatherlink.com 1.10,2013-11-18 15:02:00,
2013-11-18 10:15:00,60.8,55.0,29.66,SW,230,6.0,17.0,82,0.00,,,0.40,weatherlink.com 1.10,2013-11-18 15:15:00,
2013-11-18 10:30:00,61.1,55.0,29.65,South,178,2.0,12.0,79,0.00,,,0.40,weatherlink.com 1.10,2013-11-18 15:30:00,
2013-11-18 10:46:00,61.7,54.0,29.65,SSW,195,5.0,13.0,77,0.00,,,0.40,weatherlink.com 1.10,2013-11-18 15:46:00,
2013-11-18 11:03:00,61.6,54.0,29.64,SW,219,2.0,14.0,76,0.00,,,0.40,weatherlink.com 1.10,2013-11-18 16:03:00,
2013-11-18 11:16:00,62.7,53.0,29.63,West,268,10.0,16.0,70,0.00,,,0.40,weatherlink.com 1.10,2013-11-18 16:16:00,
2013-11-18 11:30:00,63.0,52.0,29.63,SSW,205,7.0,12.0,68,0.00,,,0.40,weatherlink.com 1.10,2013-11-18 16:30:00,
2013-11-18 11:46:00,62.3,52.0,29.62,West,272,2.0,18.0,69,0.00,,,0.40,weatherlink.com 1.10,2013-11-18 16:46:00,
2013-11-18 12:05:00,62.6,52.0,29.63,SSW,212,4.0,13.0,69,0.00,,,0.40,weatherlink.com 1.10,2013-11-18 17:05:00,
2013-11-18 12:16:00,61.8,51.0,29.63,SSW,196,7.0,16.0,67,0.00,,,0.40,weatherlink.com 1.10,2013-11-18 17:16:00,
2013-11-18 12:32:00,61.9,50.0,29.63,West,273,3.0,14.0,66,0.00,,,0.40,weatherlink.com 1.10,2013-11-18 17:32:00,
2013-11-18 12:46:00,62.3,48.0,29.63,West,281,2.0,19.0,61,0.00,,,0.40,weatherlink.com 1.10,2013-11-18 17:46:00,
2013-11-18 13:04:00,62.8,51.0,29.63,SSW,204,7.0,18.0,65,0.00,,,0.40,weatherlink.com 1.10,2013-11-18 18:04:00,
2013-11-18 13:16:00,62.0,52.0,29.63,West,266,8.0,16.0,69,0.00,,,0.40,weatherlink.com 1.10,2013-11-18 18:16:00,
2013-11-18 13:32:00,61.8,51.0,29.63,North,360,6.0,22.0,69,0.00,,,0.40,weatherlink.com 1.10,2013-11-18 18:32:00,
2013-11-18 13:46:00,61.4,52.0,29.63,WNW,290,5.0,20.0,70,0.00,,,0.40,weatherlink.com 1.10,2013-11-18 18:46:00,
2013-11-18 14:02:00,61.2,52.0,29.63,West,274,6.0,14.0,72,0.00,,,0.40,weatherlink.com 1.10,2013-11-18 19:02:00,
2013-11-18 14:16:00,60.8,52.0,29.63,WNW,287,1.0,15.0,72,0.00,,,0.40,weatherlink.com 1.10,2013-11-18 19:16:00,
2013-11-18 14:32:00,60.2,52.0,29.63,WSW,242,3.0,11.0,73,0.00,,,0.40,weatherlink.com 1.10,2013-11-18 19:32:00,
2013-11-18 14:46:00,59.7,51.0,29.63,SW,225,3.0,15.0,73,0.00,,,0.40,weatherlink.com 1.10,2013-11-18 19:46:00,
2013-11-18 15:05:00,59.5,51.0,29.64,SSW,206,2.0,12.0,74,0.00,,,0.40,weatherlink.com 1.10,2013-11-18 20:05:00,
2013-11-18 15:17:00,59.0,51.0,29.64,West,269,8.0,13.0,76,0.00,,,0.40,weatherlink.com 1.10,2013-11-18 20:17:00,
2013-11-18 15:31:00,58.4,51.0,29.63,SSW,197,1.0,11.0,77,0.00,,,0.40,weatherlink.com 1.10,2013-11-18 20:31:00,
2013-11-18 15:47:00,57.7,51.0,29.64,South,188,2.0,10.0,79,0.00,,,0.40,weatherlink.com 1.10,2013-11-18 20:47:00,
2013-11-18 16:04:00,57.0,51.0,29.64,South,191,3.0,8.0,80,0.00,,,0.40,weatherlink.com 1.10,2013-11-18 21:04:00,
2013-11-18 16:17:00,56.3,51.0,29.64,SSW,209,1.0,6.0,82,0.00,,,0.40,weatherlink.com 1.10,2013-11-18 21:17:00,
2013-11-18 16:33:00,55.7,51.0,29.64,WSW,248,0.0,5.0,84,0.00,,,0.40,weatherlink.com 1.10,2013-11-18 21:33:00,
2013-11-18 16:47:00,55.2,51.0,29.64,SSW,207,1.0,9.0,85,0.00,,,0.40,weatherlink.com 1.10,2013-11-18 21:47:00,
2013-11-18 17:02:00,55.0,51.0,29.65,SW,216,3.0,6.0,85,0.00,,,0.40,weatherlink.com 1.10,2013-11-18 22:02:00,
2013-11-18 17:18:00,55.0,51.0,29.65,SSW,196,2.0,6.0,85,0.00,,,0.40,weatherlink.com 1.10,2013-11-18 22:18:00,
2013-11-18 17:34:00,54.8,51.0,29.65,SW,228,1.0,9.0,86,0.00,,,0.40,weatherlink.com 1.10,2013-11-18 22:34:00,
2013-11-18 17:48:00,54.7,51.0,29.66,SSW,195,3.0,5.0,86,0.00,,,0.40,weatherlink.com 1.10,2013-11-18 22:48:00,
2013-11-18 18:05:00,54.8,50.0,29.66,SSW,196,1.0,7.0,85,0.00,,,0.40,weatherlink.com 1.10,2013-11-18 23:05:00,
2013-11-18 18:18:00,55.3,50.0,29.65,SSE,163,1.0,11.0,81,0.00,,,0.40,weatherlink.com 1.10,2013-11-18 23:18:00,
2013-11-18 18:33:00,55.4,49.0,29.65,SW,232,1.0,9.0,80,0.00,,,0.40,weatherlink.com 1.10,2013-11-18 23:33:00,
2013-11-18 18:48:00,55.4,49.0,29.65,West,273,3.0,10.0,79,0.00,,,0.40,weatherlink.com 1.10,2013-11-18 23:48:00,
2013-11-18 19:05:00,55.4,49.0,29.65,SSW,204,2.0,11.0,80,0.00,,,0.40,weatherlink.com 1.10,2013-11-19 00:05:00,
2013-11-18 19:19:00,54.9,49.0,29.64,WSW,254,6.0,9.0,81,0.00,,,0.40,weatherlink.com 1.10,2013-11-19 00:19:00,
2013-11-18 19:33:00,55.4,49.0,29.64,WSW,238,6.0,11.0,80,0.00,,,0.40,weatherlink.com 1.10,2013-11-19 00:33:00,
2013-11-18 19:49:00,55.7,49.0,29.64,WSW,258,9.0,15.0,77,0.00,,,0.40,weatherlink.com 1.10,2013-11-19 00:49:00,
2013-11-18 20:04:00,56.0,48.0,29.64,South,177,3.0,13.0,74,0.00,,,0.40,weatherlink.com 1.10,2013-11-19 01:04:00,
2013-11-18 20:19:00,55.7,48.0,29.65,SW,233,2.0,10.0,74,0.00,,,0.40,weatherlink.com 1.10,2013-11-19 01:19:00,
2013-11-18 20:34:00,55.7,47.0,29.65,West,261,3.0,9.0,73,0.00,,,0.40,weatherlink.com 1.10,2013-11-19 01:34:00,
2013-11-18 20:49:00,55.7,47.0,29.66,SW,222,4.0,11.0,72,0.00,,,0.40,weatherlink.com 1.10,2013-11-19 01:49:00,
2013-11-18 21:04:00,56.1,46.0,29.66,SSE,162,3.0,12.0,70,0.00,,,0.40,weatherlink.com 1.10,2013-11-19 02:04:00,
2013-11-18 21:19:00,56.1,46.0,29.67,West,264,3.0,12.0,69,0.00,,,0.40,weatherlink.com 1.10,2013-11-19 02:19:00,
2013-11-18 21:35:00,55.7,46.0,29.67,West,274,6.0,12.0,71,0.00,,,0.40,weatherlink.com 1.10,2013-11-19 02:35:00,
2013-11-18 21:49:00,55.1,46.0,29.67,WNW,282,10.0,11.0,71,0.00,,,0.40,weatherlink.com 1.10,2013-11-19 02:49:00,
2013-11-18 22:05:00,54.7,45.0,29.68,WNW,286,3.0,11.0,70,0.00,,,0.40,weatherlink.com 1.10,2013-11-19 03:05:00,
2013-11-18 22:19:00,54.9,42.0,29.67,WNW,295,3.0,10.0,63,0.00,,,0.40,weatherlink.com 1.10,2013-11-19 03:19:00,
2013-11-18 22:35:00,55.0,41.0,29.67,WSW,254,4.0,10.0,60,0.00,,,0.40,weatherlink.com 1.10,2013-11-19 03:35:00,
2013-11-18 22:49:00,54.8,41.0,29.68,WSW,248,3.0,9.0,61,0.00,,,0.40,weatherlink.com 1.10,2013-11-19 03:49:00,
2013-11-18 23:05:00,54.4,41.0,29.68,West,271,3.0,7.0,61,0.00,,,0.40,weatherlink.com 1.10,2013-11-19 04:05:00,
2013-11-18 23:19:00,53.9,41.0,29.68,West,263,2.0,6.0,61,0.00,,,0.40,weatherlink.com 1.10,2013-11-19 04:19:00,
2013-11-18 23:35:00,53.3,41.0,29.69,West,281,3.0,6.0,63,0.00,,,0.40,weatherlink.com 1.10,2013-11-19 04:35:00,
2013-11-18 23:51:00,53.6,41.0,29.69,WNW,300,4.0,10.0,63,0.00,,,0.40,weatherlink.com 1.10,2013-11-19 04:51:00,